TimeCEST,TemperatureF,Dew PointF,Humidity,Sea Level PressureIn,VisibilityMPH,Wind Direction,Wind SpeedMPH,Gust SpeedMPH,PrecipitationIn,Events,Conditions,WindDirDegrees,DateUTC
12:00 AM,60.8,59.0,94,29.95,6.2,North,2.3,-,N/A,,Scattered Clouds,360,2012-10-13 22:00:00
12:30 AM,60.8,59.0,94,29.95,6.2,Variable,1.2,-,N/A,,Scattered Clouds,0,2012-10-13 22:30:00
1:30 AM,59.0,59.0,100,29.95,6.2,Calm,Calm,-,N/A,,Scattered Clouds,0,2012-10-13 23:30:00
2:30 AM,59.0,57.2,94,29.95,6.2,Calm,Calm,-,N/A,,Scattered Clouds,0,2012-10-14 00:30:00
3:30 AM,59.0,57.2,94,29.92,6.2,Variable,2.3,-,N/A,,Scattered Clouds,0,2012-10-14 01:30:00
4:00 AM,57.2,57.2,100,29.92,6.2,Variable,2.3,-,N/A,,Scattered Clouds,0,2012-10-14 02:00:00
4:30 AM,57.2,57.2,100,29.92,6.2,Variable,1.2,-,N/A,,Scattered Clouds,0,2012-10-14 02:30:00
5:00 AM,57.2,57.2,100,29.92,6.2,NE,1.2,-,N/A,,Partly Cloudy,50,2012-10-14 03:00:00
5:30 AM,57.2,57.2,100,29.89,6.2,Calm,Calm,-,N/A,,Partly Cloudy,0,2012-10-14 03:30:00
6:00 AM,57.2,55.4,94,29.89,6.2,Variable,1.2,-,N/A,,Partly Cloudy,0,2012-10-14 04:00:00
6:30 AM,57.2,57.2,100,29.89,6.2,Variable,1.2,-,N/A,,Partly Cloudy,0,2012-10-14 04:30:00
7:00 AM,57.2,57.2,100,29.89,6.2,Calm,Calm,-,N/A,,Partly Cloudy,0,2012-10-14 05:00:00
7:30 AM,57.2,55.4,94,29.89,6.2,Calm,Calm,-,N/A,,Partly Cloudy,0,2012-10-14 05:30:00
8:00 AM,55,53,92,29.88,12,NNW,2.3,,,,Scattered Clouds,340,2012-10-14 06:00:00
8:00 AM,57.2,55.4,94,29.86,6.2,NE,1.2,-,N/A,,Partly Cloudy,50,2012-10-14 06:00:00
8:30 AM,59.0,57.2,94,29.86,6.2,Variable,2.3,-,N/A,,Partly Cloudy,0,2012-10-14 06:30:00
9:00 AM,60.8,59.0,94,29.86,6.2,Calm,Calm,-,N/A,,Partly Cloudy,0,2012-10-14 07:00:00
9:30 AM,62.6,60.8,94,29.86,6.2,Calm,Calm,-,N/A,,Partly Cloudy,0,2012-10-14 07:30:00
10:00 AM,62.6,60.8,94,29.86,6.2,Calm,Calm,-,N/A,,Partly Cloudy,0,2012-10-14 08:00:00
10:30 AM,64.4,62.6,94,29.86,6.2,Calm,Calm,-,N/A,,Partly Cloudy,0,2012-10-14 08:30:00
11:00 AM,66.2,62.6,88,29.86,6.2,Calm,Calm,-,N/A,,Partly Cloudy,0,2012-10-14 09:00:00
11:30 AM,68.0,62.6,83,29.86,6.2,Calm,Calm,-,N/A,Rain,Light Rain,0,2012-10-14 09:30:00
12:00 PM,69.8,64.4,83,29.83,6.2,Calm,Calm,-,N/A,,Scattered Clouds,0,2012-10-14 10:00:00
12:30 PM,73.4,66.2,78,29.83,6.2,SW,15.0,-,N/A,,Partly Cloudy,230,2012-10-14 10:30:00
1:00 PM,73.4,64.4,73,29.83,6.2,SW,13.8,-,N/A,,Partly Cloudy,230,2012-10-14 11:00:00
1:30 PM,73.4,64.4,73,29.80,6.2,WSW,13.8,-,N/A,,Partly Cloudy,240,2012-10-14 11:30:00
2:00 PM,72,59,55,29.80,16,SW,6.9,,,,Partly Cloudy,230,2012-10-14 12:00:00
2:00 PM,73.4,62.6,69,29.80,6.2,WSW,15.0,-,N/A,,Partly Cloudy,240,2012-10-14 12:00:00
2:30 PM,73.4,62.6,69,29.77,6.2,WSW,13.8,-,N/A,,Partly Cloudy,240,2012-10-14 12:30:00
3:00 PM,73.4,62.6,69,29.77,6.2,WSW,12.7,-,N/A,,Partly Cloudy,240,2012-10-14 13:00:00
3:30 PM,73.4,62.6,69,29.74,6.2,WSW,15.0,-,N/A,,Partly Cloudy,240,2012-10-14 13:30:00
4:00 PM,73.4,62.6,69,29.74,6.2,WSW,13.8,-,N/A,,Partly Cloudy,240,2012-10-14 14:00:00
4:30 PM,73.4,62.6,69,29.71,6.2,WSW,12.7,-,N/A,,Partly Cloudy,240,2012-10-14 14:30:00
5:00 PM,73.4,62.6,69,29.71,6.2,SW,16.1,-,N/A,,Partly Cloudy,230,2012-10-14 15:00:00
5:30 PM,73.4,60.8,65,29.71,6.2,SW,16.1,-,N/A,,Partly Cloudy,230,2012-10-14 15:30:00
6:00 PM,73.4,62.6,69,29.71,6.2,SW,13.8,-,N/A,,Partly Cloudy,220,2012-10-14 16:00:00
6:30 PM,73.4,62.6,69,29.71,6.2,SW,15.0,-,N/A,,Partly Cloudy,230,2012-10-14 16:30:00
7:00 PM,71.6,62.6,73,29.71,6.2,SW,15.0,-,N/A,,Partly Cloudy,220,2012-10-14 17:00:00
7:30 PM,71.6,64.4,78,29.71,6.2,SW,16.1,-,N/A,,Partly Cloudy,230,2012-10-14 17:30:00
8:00 PM,70,60,64,29.71,16,SW,18.4,,,,Scattered Clouds,230,2012-10-14 18:00:00
8:00 PM,71.6,64.4,78,29.71,6.2,SW,16.1,-,N/A,,Partly Cloudy,230,2012-10-14 18:00:00
8:30 PM,71.6,64.4,78,29.68,6.2,SW,15.0,-,N/A,,Scattered Clouds,220,2012-10-14 18:30:00
9:00 PM,71.6,62.6,73,29.68,6.2,SW,16.1,-,N/A,,Scattered Clouds,230,2012-10-14 19:00:00
9:30 PM,71.6,62.6,73,29.68,6.2,SW,13.8,-,N/A,,Scattered Clouds,230,2012-10-14 19:30:00
10:00 PM,71.6,64.4,78,29.68,6.2,SW,11.5,-,N/A,,Scattered Clouds,230,2012-10-14 20:00:00
10:30 PM,71.6,64.4,78,29.68,6.2,SW,12.7,-,N/A,,Scattered Clouds,230,2012-10-14 20:30:00
11:00 PM,71.6,62.6,73,29.68,6.2,SW,12.7,-,N/A,,Scattered Clouds,220,2012-10-14 21:00:00